Overview Statistics Trail Chart Weather Telemetry Raw packets
 

This is the latest recevied weather packets stored in our database for station/object N1ICS-1. If no packets are shown the sender has not sent any weather packets the latest 10 day(s).

<< 10 11 12 13 14 15 16 >>
Time Temp. Humidity Pressure Rain* Wind** Luminosity Snow
1788487802 21.11° C 99% 1017.3 hPa 0 mm - 0 W/m² -
1788487501 21.67° C 99% 1017.3 hPa 0 mm - 0 W/m² -
1788486602 21.67° C 99% 1017.4 hPa 0 mm - 0 W/m² -
1788486302 21.67° C 99% 1017.1 hPa 0 mm - 0 W/m² -
1788486002 21.67° C 99% 1017.1 hPa 0 mm - 0 W/m² -
1788485702 21.67° C 99% 1017.1 hPa 0 mm - 0 W/m² -
1788485402 21.67° C 99% 1017.2 hPa 0 mm - 0 W/m² -
1788484801 21.67° C 99% 1017 hPa 0 mm - 0 W/m² -
1788484502 21.67° C 99% 1017 hPa 0 mm - 0 W/m² -
1788483902 21.67° C 99% 1017 hPa 0 mm - 0 W/m² -
1788483603 21.67° C 99% 1017.2 hPa 0 mm - 0 W/m² -
1788483302 21.67° C 99% 1016.8 hPa 0 mm - 0 W/m² -
1788483001 21.67° C 99% 1017.2 hPa 0 mm - 0 W/m² -
1788482701 21.67° C 99% 1017.1 hPa 0 mm - 0 W/m² -
1788482402 21.67° C 99% 1016.9 hPa 0 mm - 0 W/m² -
1788482102 21.67° C 99% 1017.2 hPa 0 mm - 0 W/m² -
1788481802 21.67° C 99% 1017.1 hPa 0 mm - 0 W/m² -
1788481202 22.22° C 99% 1017.2 hPa 0 mm - 1 W/m² -
1788480602 22.22° C 99% 1017.2 hPa 0 mm - 3 W/m² -
1788479402 22.22° C 99% 1017.9 hPa 0 mm - 25 W/m² -
1788478801 22.78° C 99% 1018.1 hPa 0 mm - 54 W/m² -
1788478502 22.78° C 99% 1018.3 hPa 0 mm - 70 W/m² -
1788477003 22.78° C 96% 1018.2 hPa 14.99 mm - 19 W/m² -
1788476702 22.78° C 96% 1018.1 hPa 8.38 mm - 9 W/m² -
1788476403 23.33° C 92% 1018 hPa 1.27 mm - 10 W/m² -

* Rain latest hour (hover to see other rain measurements)
** Current wind speed in m/s (hover to see current wind gust speed)